Location: Gleizolles
(44.4833°N, 6.7667°E)
Time: 10:30:36
(UTC+00:00)

Vanguard 1 - Pass Details

Date: 01 July 2024
Orbit: 650 x 3826 km, 34.3° (Epoch: 13 July)

Event Time Altitude Azimuth Distance (km) Brightness Sun altitude
Rises 08:37:17 0° 235° (SW) 7,113 14.2 47.7°
Reaches altitude 10° 08:43:03 10° 230° (SW) 5,621 13.8 48.7°
Maximum altitude 08:56:26 39° 169° (S) 2,557 13.1 50.9°
Drops below altitude 10° 09:04:12 10° 104° (ESE) 3,286 13.6 52.2°
Sets 09:06:38 0° 95° (E) 3,964 13.7 52.6°
